Location: Worth Mountain WMA
(34.9569°N, 81.4819°W)
Time: 15:23:18
(UTC-04:00)

Uosat 12 SS-18 rocket - Pass Details

Date: 18 August 2017
Orbit: 579 x 1406 km, 64.6° (Epoch: 23 September)

Event Time Altitude Azimuth Distance (km) Brightness Sun altitude
Rises 21:27:51 0° 210° (SSW) 2,876 7.5 -15.5°
Reaches altitude 10° 21:29:56 10° 211° (SSW) 2,034 6.7 -15.9°
Maximum altitude 21:34:30 84° 300° (WNW) 731 4.4 -16.7°
Drops below altitude 10° 21:40:04 10° 28° (NNE) 2,468 7.1 -17.7°
Sets 21:42:50 0° 30° (NNE) 3,545 8.0 -18.2°
